Weather History for Tegucigalpa, Honduras

Change the Weather History Date:

Sunday, February 23, 2014

  Actual Average Record
Temperature  
Mean Temperature 72 °F -  
Max Temperature 84 °F 82 °F 87 °F (1998)
Min Temperature 61 °F 59 °F 55 °F (2006)
Cooling Degree Days 8    
Growing Degree Days 22 (Base 50)    
Moisture  
Dew Point 58 °F    
Average Humidity 63    
Maximum Humidity 95    
Minimum Humidity 29    
Precipitation  
Precipitation 0.00 in 0.01 in - ()
Sea Level Pressure  
Sea Level Pressure 30.05 in    
Wind  
Wind Speed 6 mph ()    
Max Wind Speed 21 mph    
Max Gust Speed -    
Visibility 6.4 miles    
Events      
Averages and records for this station are not official NWS values.
T = Trace of Precipitation, MM = Missing Value Source: Averaged Metar Reports

Daily Weather History Graph

Daily Weather History Graph

Search for Another Location

Airport:

Trip Planner

Search our weather history database for the weather conditions in past years. The results will help you decide how hot, cold, wet, or windy it might be!

Date:

Astronomy

Feb. 23, 2014 Rise Set
Actual Time 6:08 AM CST 5:55 PM CST
Civil Twilight 5:47 AM CST 6:17 PM CST
Nautical Twilight 5:22 AM CST 6:42 PM CST
Astronomical Twilight 4:57 AM CST 7:07 PM CST
Moon 12:39 AM CST (2/23) 12:25 PM CST (2/23)
Length of Visible Light 12h 30m
Length of Day
11h 47m
Last Quarter, 38% of the Moon is Illuminated
Feb 23
Last Quarter
Mar 1
New
Mar 8
First Quarter
Mar 16
Full
Mar 23
Last Quarter

Hourly Weather History & Observations

Time (CST) Temp. Heat Index Dew Point Humidity Pressure Visibility Wind Dir Wind Speed Gust Speed Precip Events Conditions
12:00 AM 66 °F - 60 °F 74% 30.01 in 6 mi SW 3.5 mph - -   Haze
12:00 AM 66.2 °F - 59.0 °F 78% 30.09 in 6.2 mi SW 3.5 mph - N/A   Scattered Clouds
1:00 AM 64.4 °F - 59.0 °F 83% 30.06 in 6.2 mi West 6.9 mph - N/A   Scattered Clouds
2:00 AM 66.2 °F - 60.8 °F 83% 30.06 in 6.2 mi West 4.6 mph - N/A   Mostly Cloudy
3:00 AM 65 °F - 60 °F 81% 29.99 in 6 mi NW 3.5 mph - -   Haze
3:00 AM 66.2 °F - 60.8 °F 83% 30.06 in 6.2 mi NW 3.5 mph - N/A   Mostly Cloudy
4:00 AM 62.6 °F - 59.0 °F 88% 30.06 in 6.2 mi East 4.6 mph - N/A   Scattered Clouds
5:00 AM 62.6 °F - 60.8 °F 94% 30.09 in 6.2 mi SE 4.6 mph - N/A   Mostly Cloudy
6:00 AM 62 °F - 61 °F 95% 30.04 in 6 mi North 6.9 mph - -   Mist
6:00 AM 62.6 °F - 60.8 °F 94% 30.09 in 6.2 mi North 6.9 mph - N/A   Partly Cloudy
7:00 AM 62.6 °F - 60.8 °F 94% 30.12 in 6.2 mi North 4.6 mph - N/A   Partly Cloudy
8:00 AM 68.0 °F - 62.6 °F 83% 30.15 in 6.2 mi North 6.9 mph - N/A   Partly Cloudy
9:00 AM 71 °F - 56 °F 50% 29.96 in 6 mi NNE 4.6 mph - -   Haze
9:00 AM 69.8 °F - 55.4 °F 60% 30.18 in 6.2 mi NNE 4.6 mph - N/A   Partly Cloudy
10:00 AM 77.0 °F - 53.6 °F 44% 30.15 in 6.2 mi NNE 9.2 mph - N/A   Partly Cloudy
11:00 AM 78.8 °F - 55.4 °F 44% 30.15 in 6.2 mi NE 9.2 mph - N/A   Partly Cloudy
12:00 PM 81 °F - 56 °F 32% 29.91 in 9 mi NE 20.7 mph - -   Haze
12:00 PM 80.6 °F 80.8 °F 57.2 °F 45% 30.12 in 6.2 mi NE 20.7 mph - N/A   Partly Cloudy
1:00 PM 82.4 °F 82.0 °F 57.2 °F 42% 30.09 in 6.2 mi East 9.2 mph - N/A   Scattered Clouds
2:00 PM 84.2 °F 82.8 °F 53.6 °F 35% 30.04 in 6.2 mi East 6.9 mph - N/A   Scattered Clouds
3:00 PM 84 °F - 57 °F 29% 29.84 in 9 mi NE 9.2 mph - -   Haze
3:00 PM 84.2 °F 83.5 °F 57.2 °F 40% 30.04 in 6.2 mi NE 9.2 mph - N/A   Scattered Clouds
4:00 PM 84.2 °F 83.0 °F 55.4 °F 37% 30.04 in 6.2 mi NNE 9.2 mph - N/A   Partly Cloudy
5:00 PM 82.4 °F 81.7 °F 55.4 °F 39% 30.04 in 6.2 mi NE 9.2 mph - N/A   Partly Cloudy
6:00 PM 76 °F - 55 °F 38% 29.89 in 9 mi ENE 11.5 mph - -   Haze
6:00 PM 77.0 °F - 55.4 °F 47% 30.06 in 6.2 mi ENE 11.5 mph - N/A   Partly Cloudy
7:00 PM 73.4 °F - 57.2 °F 57% 30.06 in 6.2 mi NE 4.6 mph - N/A   Partly Cloudy
8:00 PM 71.6 °F - 57.2 °F 60% 30.09 in 6.2 mi NE 4.6 mph - N/A   Clear
9:00 PM 69 °F - 58 °F 59% 30.00 in 6 mi North 4.6 mph - -   Haze
9:00 PM 68.0 °F - 57.2 °F 68% 30.09 in 6.2 mi North 4.6 mph - N/A   Partly Cloudy
10:00 PM 68.0 °F - 60.8 °F 78% 30.09 in 6.2 mi North 6.9 mph - N/A   Partly Cloudy
11:00 PM 68.0 °F - 60.8 °F 78% 30.09 in 6.2 mi North 2.3 mph - N/A   Scattered Clouds